TimeEDT,TemperatureF,Dew PointF,Humidity,Sea Level PressureIn,VisibilityMPH,Wind Direction,Wind SpeedMPH,Gust SpeedMPH,PrecipitationIn,Events,Conditions,WindDirDegrees,DateUTC
12:51 AM,66.0,63.0,90,30.05,8.0,Calm,Calm,-,N/A,,Clear,0,2012-10-05 04:51:00
1:51 AM,64.9,63.0,93,30.06,8.0,Variable,4.6,-,N/A,,Clear,0,2012-10-05 05:51:00
2:51 AM,64.0,62.1,93,30.05,7.0,WNW,3.5,-,N/A,,Clear,290,2012-10-05 06:51:00
3:51 AM,64.0,62.1,93,30.05,6.0,Calm,Calm,-,N/A,,Clear,0,2012-10-05 07:51:00
4:51 AM,63.0,61.0,93,30.05,6.0,West,3.5,-,N/A,,Clear,280,2012-10-05 08:51:00
5:51 AM,63.0,60.1,90,30.06,9.0,Variable,3.5,-,N/A,,Clear,0,2012-10-05 09:51:00
6:51 AM,62.1,57.9,86,30.07,9.0,West,4.6,-,N/A,,Clear,280,2012-10-05 10:51:00
7:51 AM,62.1,57.0,84,30.07,10.0,Calm,Calm,-,N/A,,Clear,0,2012-10-05 11:51:00
8:51 AM,64.0,57.0,78,30.07,10.0,West,5.8,-,N/A,,Clear,270,2012-10-05 12:51:00
9:51 AM,66.0,57.0,73,30.07,10.0,Variable,3.5,-,N/A,,Clear,0,2012-10-05 13:51:00
10:51 AM,69.1,57.0,65,30.07,10.0,Variable,4.6,-,N/A,,Clear,0,2012-10-05 14:51:00
11:51 AM,73.0,55.9,55,30.05,10.0,Calm,Calm,-,N/A,,Clear,0,2012-10-05 15:51:00
12:51 PM,75.0,54.0,48,30.03,10.0,WSW,3.5,-,N/A,,Clear,240,2012-10-05 16:51:00
1:51 PM,78.1,54.0,43,30.00,10.0,Variable,3.5,-,N/A,,Clear,0,2012-10-05 17:51:00
2:51 PM,77.0,54.0,45,29.97,10.0,Calm,Calm,-,N/A,,Clear,0,2012-10-05 18:51:00
3:51 PM,75.9,54.0,46,29.96,10.0,WSW,6.9,-,N/A,,Clear,250,2012-10-05 19:51:00
4:51 PM,75.9,55.9,50,29.96,10.0,West,4.6,-,N/A,,Clear,280,2012-10-05 20:51:00
5:51 PM,73.9,55.9,53,29.96,10.0,West,3.5,-,N/A,,Clear,260,2012-10-05 21:51:00
6:51 PM,72.0,55.9,57,29.96,10.0,Variable,3.5,-,N/A,,Clear,0,2012-10-05 22:51:00
7:51 PM,70.0,57.9,65,29.96,10.0,SSW,3.5,-,N/A,,Clear,200,2012-10-05 23:51:00
8:51 PM,71.1,57.0,61,29.96,10.0,Variable,3.5,-,N/A,,Clear,0,2012-10-06 00:51:00
9:51 PM,70.0,57.0,63,29.95,10.0,Variable,4.6,-,N/A,,Clear,0,2012-10-06 01:51:00
10:51 PM,70.0,55.9,61,29.94,10.0,Variable,3.5,-,N/A,,Clear,0,2012-10-06 02:51:00
11:51 PM,70.0,57.0,63,29.93,10.0,Variable,3.5,-,N/A,,Clear,0,2012-10-06 03:51:00